Regional Weather Roundup
Issued by NWS

Home | Current Version | Previous Version | Graphics & Text | Print | Product List | Glossary On
Versions: 1 2 3 4 5 6 7 8 9 10 11 12 13 14 15 16 17 18 19 20 21 22 23 24 25 26 27 28 29 30 31 32 33 34 35 36 37 38 39 40 41 42 43 44 45 46 47 48 49 50
000
ASUS43 KLSX 210507
RWRMO

WEATHER SUMMARY FOR MISSOURI
NATIONAL WEATHER SERVICE SPRINGFIELD MO
1200 AM CDT TUE APR 21 2015

NOTE: "FAIR" INDICATES FEW OR NO CLOUDS BELOW 12,000 FEET WITH NO
       SIGNIFICANT WEATHER AND/OR OBSTRUCTIONS TO VISIBILITY.
       CURRENT SKY AND/OR WEATHER CONDITIONS ARE NOT AVAILABLE FOR
       CHILLICOTHE AND FARMINGTON.

MOZ001>031-035>038-043-044-053-054-210600-
...NORTHERN AND WESTERN MISSOURI...

CITY           SKY/WX    TMP DP  RH WIND       PRES   REMARKS
KANSAS CTY INT MOCLDY    45  29  53 SW7       29.85S
KANSAS C DTWN  PTCLDY    51  29  42 SW7       29.85S
LEE`S SUMMIT   CLEAR     45  30  55 SW8       29.86S
ST JOSEPH      CLEAR     45  31  58 W8        29.84S
CHILLICOTHE      N/A     46  28  49 SW3       29.82S
KIRKSVILLE     CLEAR     45  27  49 SW8       29.78S

$$
MOZ066>068-077>081-088>096-101>105-210600-
...SOUTHWEST MISSOURI...

CITY           SKY/WX    TMP DP  RH WIND       PRES   REMARKS
SPRINGFIELD    CLEAR     42  32  67 SW8       29.92S
JOPLIN         CLEAR     43  36  76 S7        29.93F

$$
MOZ032>034-039>042-045>050-055>058-069>072-210600-
...CENTRAL MISSOURI...

CITY           SKY/WX    TMP DP  RH WIND       PRES   REMARKS
COLUMBIA       CLEAR     45  28  51 SW8       29.83F
JEFFERSON CITY CLEAR     48  28  46 CALM      29.85F
ROLLA          CLEAR     41  27  57 SW10      29.86S
SEDALIA        PTCLDY    47  30  51 SW9       29.87S
WHITEMAN AFB   CLOUDY    48  30  50 SW9       29.85S
WARRENSBURG    PTCLDY    45  32  61 SW9       29.86S
OSAGE BEACH    CLEAR     46  27  46 SW6       29.88S

$$
MOZ051-052-059>065-210600-
...EAST CENTRAL MISSOURI...

CITY           SKY/WX    TMP DP  RH WIND       PRES   REMARKS
ST LOUIS INTL  FAIR      49  30  48 SW10      29.83F
SPIRIT OF STL  CLEAR     48  30  49 SW8       29.83F
ST CHARLES     CLEAR     43  34  70 CALM      29.81F

$$
MOZ072>076-082>087-097>100-106>115-210600-
...SOUTH CENTRAL AND SOUTHEAST MISSOURI...

CITY           SKY/WX    TMP DP  RH WIND       PRES   REMARKS
CAPE GIRARDEAU MOCLDY    50  39  66 W9        29.90S
FARMINGTON     CLEAR     45  30  57 W3        29.91F
POPLAR BLUFF   CLEAR     51  32  48 W5        29.92S
WEST PLAINS    CLEAR     44  29  55 SW5       29.94S

$$


USA.gov is the U.S. government's official web portal to all federal, state and local government web resources and services.